Terminal Aerodrome Forecast
Issued by NWS Pittsburgh, PA

Current Version | Previous Version | Graphics & Text | Print | Product List | Glossary On
Versions: 1 2 3 4 5 6 7 8 9 10 11 12 13 14 15 16 17 18 19 20 21 22 23 24 25 26
000
FTUS41 KPBZ 242055 AAA
TAFPIT
TAF AMD
KPIT 242055Z 2421/2524 31015G25KT P6SM SCT250
     FM250000 36005KT P6SM SCT150
     FM251000 09005KT P6SM BKN080
     FM252200 12005KT P6SM -RA OVC050=

USA.gov is the U.S. government's official web portal to all federal, state and local government web resources and services.